period_start,C,m1,H,J0,J1,J2,J3,J4,J5,JA,JB,JC,JD,JJ,JK,JN,#
2017-12-22 00:04:28,0.01,2.07,0.00,17.99,21.46,24.74,14.16,47.62,1019.06,2050.00,2659.94,2607.84,2961.99,599.74,607.47,34.82,0000 0000 0000 0000 000000
2017-12-22 00:09:29,0.05,2.07,0.00,18.00,21.47,24.76,14.30,47.62,1019.07,2050.00,2659.18,2607.19,2961.55,600.27,608.03,34.87,0000 0000 0000 0000 000000
2017-12-22 00:14:31,0.01,2.08,0.00,18.03,21.48,24.79,14.27,47.50,1019.06,2049.99,2658.99,2607.02,2961.02,600.12,607.61,34.92,0000 0000 0000 0000 000000
2017-12-22 00:19:32,0.02,2.08,0.00,18.02,21.49,24.79,14.28,47.61,1019.09,2049.98,2658.39,2607.00,2960.97,600.00,607.71,34.97,0000 0000 0000 0000 000000
2017-12-22 00:24:33,0.01,2.08,0.00,18.04,21.50,24.79,14.36,47.66,1019.08,2049.96,2657.97,2606.84,2960.37,600.36,608.23,35.02,0000 0000 0000 0000 000000
2017-12-22 00:29:34,0.04,2.08,0.00,18.05,21.52,24.76,14.26,47.61,1019.12,2049.94,2657.28,2606.16,2960.01,599.93,607.61,35.07,0000 0000 0000 0000 000000
2017-12-22 00:34:36,0.01,2.08,0.00,18.06,21.53,24.84,14.23,47.66,1019.13,2049.93,2656.99,2606.01,2959.91,599.86,607.45,35.12,0000 0000 0000 0000 000000
2017-12-22 00:39:37,0.03,2.08,0.00,18.07,21.54,24.86,14.31,47.68,1019.45,2049.86,2656.28,2605.99,2959.14,600.19,607.96,35.17,0000 0000 0000 0000 000000
2017-12-22 00:44:39,0.00,2.08,0.00,18.07,21.55,24.84,14.26,47.77,1019.54,2049.83,2656.00,2605.75,2959.00,600.34,608.19,35.22,0000 0000 0000 0000 000000
2017-12-22 00:49:40,0.02,2.08,0.00,18.09,21.57,24.86,14.19,47.66,1019.54,2049.59,2655.53,2605.10,2958.71,599.93,607.75,35.27,0000 0000 0000 0000 000000
2017-12-22 00:54:41,-0.01,2.08,0.00,18.08,21.57,24.87,14.26,47.63,1019.54,2049.26,2654.85,2604.99,2958.04,600.01,607.85,35.32,0000 0000 0000 0000 000000
2017-12-22 00:59:43,0.01,2.08,0.00,18.09,21.59,24.87,14.27,47.67,1019.55,2049.09,2654.05,2604.96,2957.94,599.97,607.85,35.37,0000 0000 0000 0000 000000
2017-12-22 01:04:44,0.04,2.08,0.00,18.12,21.60,24.89,14.23,47.60,1019.55,2049.11,2653.84,2604.55,2957.26,599.86,607.56,35.42,0000 0000 0000 0000 000000
2017-12-22 01:09:46,0.02,2.09,0.00,18.12,21.62,24.90,14.38,47.73,1019.54,2049.06,2653.12,2604.05,2957.00,600.29,608.06,35.48,0000 0000 0000 0000 000000
2017-12-22 01:14:47,0.01,2.09,0.00,18.13,21.63,24.90,14.26,47.72,1019.54,2049.04,2652.83,2604.00,2956.77,599.82,607.62,35.53,0000 0000 0000 0000 000000
2017-12-22 01:19:48,0.03,2.09,0.00,18.14,21.64,24.93,14.27,47.64,1019.54,2049.02,2652.07,2603.94,2956.04,599.93,607.61,35.58,0000 0000 0000 0000 000000
2017-12-22 01:24:49,0.02,2.09,0.00,18.14,21.65,24.96,14.23,47.67,1019.55,2049.01,2651.90,2603.44,2955.99,599.61,607.25,35.63,0000 0000 0000 0000 000000
2017-12-22 01:29:51,0.03,2.09,0.00,18.17,21.67,24.93,14.24,47.71,1019.55,2049.01,2651.13,2603.06,2955.58,600.13,607.77,35.68,0000 0000 0000 0000 000000
2017-12-22 01:34:52,0.00,2.09,0.00,18.17,21.68,24.96,14.24,47.69,1019.55,2049.00,2650.95,2603.00,2955.01,599.85,607.49,35.73,0000 0000 0000 0000 000000
2017-12-22 01:39:53,0.02,2.09,0.00,18.18,21.69,24.95,14.22,47.71,1019.55,2049.00,2650.18,2602.94,2954.84,599.93,607.61,35.78,0000 0000 0000 0000 000000
2017-12-22 01:44:54,0.03,2.10,0.00,18.19,21.70,24.93,14.19,47.72,1019.55,2049.00,2649.93,2602.37,2954.10,599.98,607.66,35.83,0000 0000 0000 0000 000000
2017-12-22 01:49:56,0.02,2.10,0.00,18.19,21.72,24.95,14.20,47.67,1019.55,2049.00,2649.27,2602.04,2953.99,599.82,607.42,35.88,0000 0000 0000 0000 000000
2017-12-22 01:54:57,0.01,2.10,0.00,18.22,21.72,24.93,14.22,47.63,1019.55,2049.00,2648.89,2601.99,2953.60,600.05,607.63,35.93,0000 0000 0000 0000 000000
2017-12-22 01:59:57,0.02,2.10,0.00,18.22,21.74,25.02,14.30,47.78,1019.56,2048.98,2648.07,2601.89,2953.02,600.33,607.89,35.98,0000 0000 0000 0000 000000
2017-12-22 02:04:59,0.04,2.10,0.00,18.23,21.75,24.97,14.23,47.67,1019.57,2048.97,2647.69,2601.17,2952.84,599.93,607.68,36.03,0000 0000 0000 0000 000000
2017-12-22 02:10:00,0.02,2.10,0.00,18.24,21.77,25.00,14.29,47.69,1019.62,2048.94,2647.05,2601.00,2952.08,600.13,607.53,36.08,0000 0000 0000 0000 000000
2017-12-22 02:15:01,-0.00,2.10,0.00,18.25,21.77,25.00,14.18,47.79,1019.84,2048.87,2646.82,2600.99,2952.00,599.97,607.72,36.13,0000 0000 0000 0000 000000
2017-12-22 02:20:03,0.03,2.10,0.00,18.29,21.78,25.00,14.26,47.65,1019.97,2048.69,2646.06,2600.68,2951.54,600.17,607.70,36.18,0000 0000 0000 0000 000000
2017-12-22 02:25:04,-0.00,2.10,0.00,18.29,21.79,25.02,14.16,47.67,1020.03,2048.47,2645.89,2600.06,2951.02,599.84,607.56,36.23,0000 0000 0000 0000 000000
2017-12-22 02:30:05,0.02,2.10,0.00,18.30,21.79,25.04,14.21,47.70,1020.03,2048.40,2645.18,2600.00,2950.98,599.93,607.61,36.28,0000 0000 0000 0000 000000
2017-12-22 02:35:07,-0.01,2.10,0.00,18.32,21.82,25.02,14.25,47.67,1020.03,2048.14,2644.93,2599.99,2950.25,600.06,607.70,36.33,0000 0000 0000 0000 000000
2017-12-22 02:40:08,0.03,2.10,0.00,18.32,21.82,25.02,14.19,47.77,1020.03,2048.06,2644.23,2599.70,2950.00,599.81,607.52,36.39,0000 0000 0000 0000 000000
2017-12-22 02:45:08,0.02,2.11,0.00,18.34,21.84,25.06,14.31,47.66,1020.03,2048.05,2643.99,2599.08,2949.87,600.32,607.85,36.44,0000 0000 0000 0000 000000
2017-12-22 02:50:10,0.03,2.11,0.00,18.35,21.84,25.10,14.23,47.66,1020.03,2048.02,2643.34,2598.99,2949.10,600.20,607.81,36.49,0000 0000 0000 0000 000000
2017-12-22 02:55:11,0.00,2.11,0.00,18.35,21.87,25.14,14.27,47.92,1020.03,2048.02,2642.99,2598.97,2948.99,600.04,607.44,36.54,0000 0000 0000 0000 000000
2017-12-22 03:00:13,0.04,2.11,0.00,18.37,21.87,25.13,14.29,47.83,1020.03,2048.01,2642.41,2598.64,2948.75,600.24,607.75,36.59,0000 0000 0000 0000 000000
2017-12-22 03:05:14,0.02,2.11,0.00,18.37,21.89,25.09,14.25,47.83,1020.03,2048.00,2641.91,2598.07,2948.09,600.12,607.60,36.64,0000 0000 0000 0000 000000
2017-12-22 03:10:15,0.01,2.11,0.00,18.38,21.89,25.13,14.23,47.69,1020.04,2048.00,2641.11,2598.00,2947.99,600.30,607.76,36.69,0000 0000 0000 0000 000000
2017-12-22 03:15:17,0.02,2.11,0.00,18.39,21.91,25.08,14.27,47.87,1020.04,2048.00,2640.98,2597.95,2947.38,599.96,607.30,36.74,0000 0000 0000 0000 000000
2017-12-22 03:20:18,0.05,2.12,0.00,18.39,21.92,25.11,14.23,47.83,1020.09,2048.00,2640.36,2597.34,2947.01,600.01,607.56,36.79,0000 0000 0000 0000 000000
2017-12-22 03:25:19,0.01,2.12,0.00,18.42,21.92,25.18,14.30,47.88,1020.20,2047.98,2639.96,2597.01,2946.81,600.00,607.54,36.84,0000 0000 0000 0000 000000
2017-12-22 03:30:21,0.03,2.12,0.00,18.41,21.94,25.17,14.29,47.83,1020.18,2047.99,2639.29,2596.99,2946.10,600.20,607.86,36.89,0000 0000 0000 0000 000000
2017-12-22 03:35:22,0.01,2.12,0.00,18.41,21.94,25.17,14.26,47.92,1020.23,2047.97,2638.91,2596.84,2945.99,600.09,607.67,36.94,0000 0000 0000 0000 000000
2017-12-22 03:40:24,0.04,2.12,0.00,18.42,21.96,25.17,14.32,47.88,1020.30,2047.95,2638.35,2596.18,2945.55,600.61,608.09,36.99,0000 0000 0000 0000 000000
2017-12-22 03:45:25,-0.02,2.12,0.00,18.42,21.97,25.22,14.20,47.75,1020.48,2047.60,2638.01,2596.00,2945.01,599.84,607.47,37.04,0000 0000 0000 0000 000000
2017-12-22 03:50:26,-0.02,2.12,0.00,18.44,21.97,25.24,14.22,47.81,1020.50,2047.29,2637.88,2595.99,2944.89,599.89,607.56,37.09,0000 0000 0000 0000 000000
2017-12-22 03:55:27,0.04,2.12,0.00,18.44,21.99,25.25,14.24,47.85,1020.47,2047.34,2637.13,2595.88,2944.22,599.78,607.35,37.14,0000 0000 0000 0000 000000
2017-12-22 04:00:28,0.03,2.12,0.00,18.44,21.99,25.20,14.24,47.73,1020.43,2047.30,2636.81,2595.27,2944.00,600.03,607.74,37.19,0000 0000 0000 0000 000000
2017-12-22 04:05:29,0.00,2.12,0.00,18.47,22.00,25.24,14.22,47.79,1020.43,2047.14,2636.03,2595.00,2943.99,599.71,607.13,37.25,0000 0000 0000 0000 000000
2017-12-22 04:10:30,0.02,2.12,0.00,18.47,22.02,25.27,14.28,47.83,1020.48,2047.08,2635.34,2594.97,2943.60,600.22,607.76,37.30,0000 0000 0000 0000 000000
2017-12-22 04:15:31,0.01,2.13,0.00,18.46,22.02,25.29,14.16,47.72,1020.50,2047.09,2635.00,2594.82,2943.04,599.71,607.29,37.35,0000 0000 0000 0000 000000
2017-12-22 04:20:33,0.02,2.13,0.00,18.47,22.03,25.26,14.29,47.76,1020.52,2047.05,2634.97,2594.24,2942.84,600.22,607.83,37.40,0000 0000 0000 0000 000000
2017-12-22 04:25:34,0.03,2.13,0.00,18.47,22.04,25.28,14.32,47.75,1020.52,2047.01,2634.34,2594.00,2942.08,600.07,607.66,37.45,0000 0000 0000 0000 000000
2017-12-22 04:30:36,0.00,2.13,0.00,18.48,22.04,25.34,14.16,47.73,1020.52,2047.00,2634.00,2594.00,2942.00,599.97,607.58,37.50,0000 0000 0000 0000 000000
2017-12-22 04:35:37,0.02,2.13,0.00,18.49,22.05,25.29,14.28,47.73,1020.52,2047.00,2633.64,2593.91,2941.83,599.88,607.43,37.55,0000 0000 0000 0000 000000
2017-12-22 04:40:39,0.05,2.13,0.00,18.49,22.07,25.30,14.20,47.83,1020.52,2047.00,2633.02,2593.24,2941.12,599.81,607.38,37.60,0000 0000 0000 0000 000000
2017-12-22 04:45:40,0.01,2.13,0.00,18.50,22.07,25.30,14.27,47.83,1020.54,2047.00,2632.67,2593.02,2940.99,600.02,607.59,37.65,0000 0000 0000 0000 000000
2017-12-22 04:50:41,0.01,2.13,0.00,18.50,22.07,25.37,14.29,47.88,1020.74,2047.00,2632.02,2592.99,2940.93,600.03,607.64,37.70,0000 0000 0000 0000 000000
2017-12-22 04:55:43,0.02,2.13,0.00,18.51,22.08,25.30,14.24,47.87,1020.91,2047.00,2631.60,2592.96,2940.38,600.11,607.93,37.75,0000 0000 0000 0000 000000
2017-12-22 05:00:44,0.04,2.14,0.00,18.54,22.09,25.31,14.27,47.92,1021.00,2047.00,2631.03,2592.40,2940.02,600.22,607.93,37.80,0000 0000 0000 0000 000000
2017-12-22 05:05:45,0.02,2.14,0.00,18.52,22.09,25.36,14.25,48.02,1021.01,2047.00,2630.56,2592.03,2939.98,599.77,607.54,37.85,0000 0000 0000 0000 000000
2017-12-22 05:10:46,0.02,2.14,0.00,18.54,22.10,25.37,14.29,47.97,1021.01,2047.00,2630.02,2592.00,2939.31,600.39,608.09,37.90,0000 0000 0000 0000 000000
2017-12-22 05:15:48,0.00,2.14,0.00,18.53,22.12,25.35,14.25,48.02,1021.01,2047.00,2629.83,2591.97,2939.00,599.99,607.86,37.95,0000 0000 0000 0000 000000
2017-12-22 05:20:49,0.04,2.14,0.00,18.55,22.12,25.35,14.22,48.02,1021.01,2047.00,2629.08,2591.40,2938.89,599.96,607.67,38.00,0000 0000 0000 0000 000000
2017-12-22 05:25:51,0.02,2.14,0.00,18.57,22.14,25.36,14.18,48.02,1021.01,2047.00,2628.81,2591.01,2938.13,599.87,607.59,38.05,0000 0000 0000 0000 000000
2017-12-22 05:30:52,0.01,2.14,0.00,18.54,22.14,25.40,14.20,48.02,1021.03,2047.00,2628.07,2591.00,2937.99,600.14,607.92,38.10,0000 0000 0000 0000 000000
2017-12-22 05:35:53,0.02,2.15,0.00,18.57,22.15,25.40,14.23,48.05,1021.02,2047.00,2627.67,2590.84,2937.78,600.00,607.63,38.16,0000 0000 0000 0000 000000
2017-12-22 05:40:55,0.04,2.15,0.00,18.57,22.17,25.43,14.27,47.90,1021.09,2047.00,2627.05,2590.21,2937.06,600.23,607.99,38.21,0000 0000 0000 0000 000000
2017-12-22 05:45:56,0.00,2.15,0.00,18.56,22.17,25.39,14.21,47.86,1021.08,2047.00,2626.95,2590.01,2936.99,599.89,607.61,38.26,0000 0000 0000 0000 000000
2017-12-22 05:50:57,0.03,2.15,0.00,18.59,22.19,25.43,14.36,47.94,1021.18,2047.00,2626.16,2589.99,2936.64,600.31,608.06,38.31,0000 0000 0000 0000 000000
2017-12-22 05:55:58,0.01,2.15,0.00,18.58,22.19,25.43,14.29,47.97,1021.30,2047.00,2625.94,2589.88,2936.02,600.16,608.02,38.36,0000 0000 0000 0000 000000
2017-12-22 06:00:59,0.04,2.15,0.00,18.58,22.20,25.44,14.27,47.92,1021.39,2047.00,2625.15,2589.19,2935.96,600.20,608.08,38.41,0000 0000 0000 0000 000000
2017-12-22 06:06:00,0.01,2.15,0.00,18.59,22.22,25.45,14.37,47.99,1021.50,2046.99,2624.95,2589.00,2935.40,600.00,607.94,38.46,0000 0000 0000 0000 000000
2017-12-22 06:11:02,0.02,2.16,0.00,18.59,22.22,25.48,14.17,47.99,1021.50,2046.98,2624.25,2588.98,2935.01,599.87,607.72,38.51,0000 0000 0000 0000 000000
2017-12-22 06:16:03,0.02,2.16,0.00,18.59,22.23,25.43,14.21,48.01,1021.50,2046.98,2623.98,2588.65,2934.88,599.96,607.82,38.56,0000 0000 0000 0000 000000
2017-12-22 06:21:04,0.04,2.16,0.00,18.59,22.24,25.45,14.23,47.97,1021.50,2046.97,2623.32,2588.06,2934.17,599.94,607.86,38.61,0000 0000 0000 0000 000000
2017-12-22 06:26:06,0.00,2.16,0.00,18.59,22.24,25.43,14.33,48.08,1021.50,2046.94,2623.00,2588.00,2934.00,600.32,608.37,38.66,0000 0000 0000 0000 000000
2017-12-22 06:31:07,0.02,2.16,0.00,18.61,22.24,25.42,14.24,48.05,1021.50,2046.90,2622.60,2587.96,2933.74,599.77,607.68,38.71,0000 0000 0000 0000 000000
2017-12-22 06:36:08,0.05,2.16,0.00,18.60,22.25,25.46,14.21,48.13,1021.50,2046.91,2622.02,2587.46,2933.08,600.03,607.92,38.76,0000 0000 0000 0000 000000
2017-12-22 06:41:10,0.02,2.16,0.00,18.60,22.26,25.45,14.29,48.09,1021.50,2046.90,2621.56,2587.02,2933.00,600.12,608.04,38.81,0000 0000 0000 0000 000000
2017-12-22 06:46:11,-0.00,2.16,0.00,18.64,22.27,25.47,14.29,48.11,1021.51,2046.74,2621.00,2586.99,2932.55,600.04,608.01,38.86,0000 0000 0000 0000 000000
2017-12-22 06:51:12,0.02,2.16,0.00,18.62,22.27,25.46,14.21,48.14,1021.50,2046.55,2620.55,2586.75,2932.02,600.00,607.82,38.91,0000 0000 0000 0000 000000
2017-12-22 06:56:14,0.03,2.17,0.00,18.65,22.27,25.52,14.20,48.08,1021.51,2046.55,2620.02,2586.12,2931.99,600.12,607.76,38.96,0000 0000 0000 0000 000000
2017-12-22 07:01:15,0.01,2.17,0.00,18.64,22.28,25.52,14.30,48.03,1021.60,2046.45,2619.70,2586.01,2931.52,600.00,607.91,39.01,0000 0000 0000 0000 000000
2017-12-22 07:06:16,0.03,2.17,0.00,18.66,22.29,25.54,14.34,48.14,1021.63,2046.56,2619.09,2585.99,2931.04,600.49,608.39,39.07,0000 0000 0000 0000 000000
2017-12-22 07:11:18,-0.01,2.17,0.00,18.67,22.29,25.53,14.20,48.12,1021.69,2046.41,2618.88,2585.88,2930.99,599.93,607.99,39.12,0000 0000 0000 0000 000000
2017-12-22 07:16:19,0.03,2.17,0.00,18.67,22.29,25.52,14.29,48.21,1021.72,2046.17,2618.10,2585.17,2930.49,599.92,607.76,39.17,0000 0000 0000 0000 000000
2017-12-22 07:21:20,0.01,2.17,0.00,18.69,22.30,25.55,14.24,48.24,1021.86,2046.06,2617.76,2585.00,2930.01,600.04,607.95,39.22,0000 0000 0000 0000 000000
2017-12-22 07:26:21,0.02,2.17,0.00,18.69,22.32,25.54,14.25,48.27,1021.83,2046.13,2617.10,2584.99,2929.98,599.85,607.77,39.27,0000 0000 0000 0000 000000
2017-12-22 07:31:23,0.00,2.17,0.00,18.70,22.32,25.53,14.26,48.27,1021.71,2046.06,2616.97,2584.92,2929.56,599.79,607.51,39.32,0000 0000 0000 0000 000000
2017-12-22 07:36:24,0.06,2.17,0.00,18.70,22.32,25.55,14.25,48.33,1021.73,2046.09,2616.27,2584.26,2929.02,599.89,607.66,39.37,0000 0000 0000 0000 000000
2017-12-22 07:41:25,0.00,2.17,0.00,18.73,22.32,25.51,14.26,48.27,1021.84,2046.05,2616.00,2584.04,2928.99,599.82,607.63,39.42,0000 0000 0000 0000 000000
2017-12-22 07:46:26,0.03,2.18,0.00,18.72,22.33,25.58,14.22,48.18,1021.95,2046.06,2615.55,2584.00,2928.56,599.85,607.85,39.47,0000 0000 0000 0000 000000
2017-12-22 07:51:27,0.00,2.18,0.00,18.75,22.34,25.55,14.25,48.22,1021.98,2046.02,2615.01,2583.92,2928.02,600.07,608.04,39.52,0000 0000 0000 0000 000000
2017-12-22 07:56:28,0.04,2.18,0.00,18.73,22.34,25.56,14.22,48.26,1021.99,2046.01,2614.58,2583.36,2927.98,599.96,608.03,39.57,0000 0000 0000 0000 000000
2017-12-22 08:01:30,0.02,2.18,0.00,18.76,22.36,25.61,14.20,48.25,1021.99,2046.01,2614.01,2583.01,2927.59,599.40,607.28,39.62,0000 0000 0000 0000 000000
2017-12-22 08:06:31,0.02,2.18,0.00,18.76,22.37,25.59,14.35,48.23,1021.99,2046.01,2613.53,2583.00,2927.04,600.20,608.05,39.67,0000 0000 0000 0000 000000
2017-12-22 08:11:32,0.01,2.18,0.00,18.75,22.37,25.64,14.22,48.22,1021.99,2046.00,2613.01,2582.72,2926.93,599.75,607.67,39.72,0000 0000 0000 0000 000000
2017-12-22 08:16:33,0.04,2.18,0.00,18.77,22.38,25.66,14.23,48.28,1022.00,2046.00,2612.74,2582.07,2926.19,600.05,608.08,39.77,0000 0000 0000 0000 000000
2017-12-22 08:21:35,0.01,2.19,0.00,18.77,22.39,25.63,14.26,48.21,1022.00,2046.00,2612.07,2582.01,2926.00,600.21,608.13,39.82,0000 0000 0000 0000 000000
2017-12-22 08:26:36,0.00,2.19,0.00,18.77,22.39,25.63,14.26,48.15,1022.05,2046.00,2611.94,2581.99,2925.95,600.01,607.84,39.87,0000 0000 0000 0000 000000
2017-12-22 08:31:37,0.04,2.19,0.00,18.77,22.40,25.61,14.27,48.23,1022.12,2046.00,2611.15,2581.83,2925.20,600.11,608.09,39.92,0000 0000 0000 0000 000000
2017-12-22 08:36:38,0.01,2.19,0.00,18.79,22.42,25.64,14.29,48.22,1022.10,2045.99,2610.98,2581.28,2925.00,600.18,608.14,39.97,0000 0000 0000 0000 000000
2017-12-22 08:41:39,0.02,2.19,0.00,18.79,22.42,25.62,14.32,48.22,1022.16,2045.99,2610.30,2581.02,2924.89,600.29,608.21,40.03,0000 0000 0000 0000 000000
2017-12-22 08:46:41,0.01,2.19,0.00,18.80,22.42,25.64,14.25,48.25,1022.27,2045.99,2610.00,2581.00,2924.18,599.94,607.97,40.08,0000 0000 0000 0000 000000
2017-12-22 08:51:42,0.02,2.19,0.00,18.79,22.44,25.65,14.32,48.33,1022.36,2045.98,2609.51,2580.88,2924.00,599.97,608.09,40.13,0000 0000 0000 0000 000000
2017-12-22 08:56:43,0.03,2.19,0.00,18.82,22.44,25.65,14.27,48.23,1022.46,2045.99,2609.01,2580.24,2923.91,600.16,608.01,40.18,0000 0000 0000 0000 000000
2017-12-22 09:01:44,0.02,2.20,0.00,18.80,22.44,25.71,14.25,48.21,1022.47,2045.99,2608.76,2580.02,2923.18,599.95,608.03,40.23,0000 0000 0000 0000 000000
2017-12-22 09:06:46,0.01,2.20,0.00,18.82,22.45,25.70,14.25,48.27,1022.48,2045.99,2608.04,2580.00,2923.00,599.62,607.70,40.28,0000 0000 0000 0000 000000
2017-12-22 09:11:47,0.00,2.20,0.00,18.82,22.47,25.70,14.23,48.36,1022.48,2045.98,2607.93,2579.97,2922.94,600.07,608.20,40.33,0000 0000 0000 0000 000000
2017-12-22 09:16:48,0.04,2.20,0.00,18.82,22.47,25.69,14.23,48.25,1022.48,2045.98,2607.24,2579.71,2922.32,600.12,608.09,40.38,0000 0000 0000 0000 000000
2017-12-22 09:21:49,0.02,2.20,0.00,18.83,22.47,25.70,14.21,48.21,1022.48,2045.97,2606.99,2579.11,2922.01,599.87,607.81,40.43,0000 0000 0000 0000 000000
2017-12-22 09:26:50,0.02,2.20,0.00,18.85,22.48,25.70,14.28,48.27,1022.48,2045.95,2606.31,2579.00,2921.93,600.20,608.10,40.48,0000 0000 0000 0000 000000
2017-12-22 09:31:52,0.01,2.20,0.00,18.84,22.49,25.70,14.26,48.27,1022.48,2045.94,2606.00,2578.98,2921.22,600.01,607.95,40.53,0000 0000 0000 0000 000000
2017-12-22 09:36:53,0.03,2.20,0.00,18.85,22.49,25.68,14.26,48.31,1022.48,2045.88,2605.50,2578.65,2921.00,599.93,607.90,40.58,0000 0000 0000 0000 000000
2017-12-22 09:41:54,0.01,2.20,0.00,18.84,22.50,25.70,14.22,48.27,1022.51,2045.87,2605.01,2578.09,2920.93,599.91,607.93,40.63,0000 0000 0000 0000 000000
2017-12-22 09:46:55,0.02,2.21,0.00,18.86,22.52,25.70,14.29,48.19,1022.61,2045.73,2604.64,2578.00,2920.22,600.14,608.17,40.68,0000 0000 0000 0000 000000
2017-12-22 09:51:57,-0.01,2.21,0.00,18.87,22.52,25.69,14.24,48.23,1022.66,2045.51,2604.02,2577.98,2920.00,600.25,608.29,40.73,0000 0000 0000 0000 000000
2017-12-22 09:56:58,0.00,2.21,0.00,18.87,22.52,25.75,14.17,48.13,1022.80,2045.50,2603.90,2577.83,2919.94,599.89,608.06,40.78,0000 0000 0000 0000 000000
2017-12-22 10:01:59,0.05,2.21,0.00,18.88,22.53,25.70,14.25,48.24,1022.91,2045.43,2603.17,2577.18,2919.31,599.79,607.93,40.83,0000 0000 0000 0000 000000
2017-12-22 10:07:00,-0.01,2.21,0.00,18.88,22.54,25.74,14.29,48.18,1022.95,2045.23,2602.98,2577.02,2919.00,600.07,608.29,40.88,0000 0000 0000 0000 000000
2017-12-22 10:12:02,0.02,2.21,0.00,18.88,22.54,25.74,14.24,48.14,1022.96,2045.23,2602.37,2577.00,2918.97,600.04,608.28,40.94,0000 0000 0000 0000 000000
2017-12-22 10:17:03,0.01,2.21,0.00,18.89,22.54,25.73,14.28,48.17,1022.96,2045.16,2602.00,2576.97,2918.36,599.87,608.08,40.99,0000 0000 0000 0000 000000
2017-12-22 10:22:04,0.03,2.21,0.00,18.89,22.54,25.74,14.17,48.30,1022.96,2045.19,2601.48,2576.54,2918.02,599.74,607.89,41.04,0000 0000 0000 0000 000000
2017-12-22 10:27:06,0.02,2.21,0.00,18.90,22.55,25.76,14.20,48.37,1022.96,2045.16,2601.01,2576.06,2917.99,599.92,608.06,41.09,0000 0000 0000 0000 000000
2017-12-22 10:32:07,0.00,2.21,0.00,18.91,22.57,25.74,14.23,48.19,1022.96,2045.06,2600.92,2576.01,2917.43,600.14,608.24,41.14,0000 0000 0000 0000 000000
2017-12-22 10:37:08,0.03,2.21,0.00,18.92,22.57,25.81,14.24,48.27,1022.96,2045.06,2600.12,2575.99,2917.01,600.08,608.23,41.19,0000 0000 0000 0000 000000
2017-12-22 10:42:10,0.00,2.21,0.00,18.93,22.57,25.72,14.23,48.19,1022.96,2045.05,2599.98,2575.92,2916.97,600.06,608.18,41.24,0000 0000 0000 0000 000000
2017-12-22 10:47:11,0.06,2.22,0.00,18.95,22.57,25.75,14.30,48.15,1022.96,2045.04,2599.34,2575.22,2916.41,600.15,608.23,41.29,0000 0000 0000 0000 000000
2017-12-22 10:52:12,0.01,2.22,0.00,18.94,22.57,25.79,14.29,48.13,1022.98,2045.04,2598.99,2575.01,2916.02,600.07,608.04,41.34,0000 0000 0000 0000 000000
2017-12-22 10:57:13,0.01,2.22,0.00,18.95,22.59,25.76,14.22,48.14,1022.97,2045.03,2598.50,2574.99,2915.98,600.31,608.42,41.39,0000 0000 0000 0000 000000
2017-12-22 11:02:15,0.05,2.22,0.00,18.95,22.59,25.76,14.17,48.17,1022.99,2045.02,2597.75,2574.62,2915.24,599.63,607.67,41.44,0000 0000 0000 0000 000000
2017-12-22 11:07:16,0.02,2.22,0.00,18.95,22.59,25.80,14.21,48.23,1023.00,2045.03,2597.03,2574.04,2915.00,599.92,608.04,41.49,0000 0000 0000 0000 000000
2017-12-22 11:12:18,0.02,2.22,0.00,18.97,22.59,25.80,14.25,48.25,1023.01,2045.00,2596.74,2573.99,2914.78,600.16,608.23,41.54,0000 0000 0000 0000 000000
2017-12-22 11:17:19,0.02,2.22,0.00,18.96,22.60,25.82,14.25,48.07,1023.10,2045.02,2596.06,2573.98,2914.10,599.94,608.15,41.59,0000 0000 0000 0000 000000
2017-12-22 11:22:20,0.04,2.23,0.00,18.96,22.61,25.79,14.26,48.33,1023.13,2045.00,2595.69,2573.37,2913.98,600.05,608.14,41.64,0000 0000 0000 0000 000000
2017-12-22 11:27:21,0.03,2.23,0.00,18.98,22.62,25.82,14.23,48.37,1023.23,2045.00,2595.04,2573.02,2913.31,599.86,608.11,41.69,0000 0000 0000 0000 000000
2017-12-22 11:32:22,0.01,2.23,0.00,18.97,22.62,25.83,14.23,48.33,1023.41,2045.00,2594.73,2572.98,2913.00,599.82,608.11,41.74,0000 0000 0000 0000 000000
2017-12-22 11:37:24,0.05,2.23,0.00,18.99,22.62,25.83,14.28,48.37,1023.44,2045.00,2594.03,2572.48,2912.65,600.00,608.37,41.80,0000 0000 0000 0000 000000
2017-12-22 11:42:25,0.03,2.23,0.00,18.99,22.63,25.82,14.29,48.24,1023.45,2045.00,2593.32,2572.01,2912.01,600.24,608.52,41.85,0000 0000 0000 0000 000000
2017-12-22 11:47:27,0.00,2.23,0.00,18.98,22.64,25.81,14.19,48.31,1023.45,2045.00,2592.94,2571.98,2911.91,599.72,608.10,41.90,0000 0000 0000 0000 000000
2017-12-22 11:52:28,0.05,2.24,0.00,18.99,22.64,25.80,14.28,48.44,1023.45,2045.00,2592.11,2571.59,2911.21,600.03,608.39,41.95,0000 0000 0000 0000 000000
2017-12-22 11:57:29,0.01,2.24,0.00,18.99,22.64,25.80,14.27,48.23,1023.45,2045.00,2591.98,2571.03,2910.99,600.37,608.78,42.00,0000 0000 0000 0000 000000
2017-12-22 12:02:30,0.03,2.24,0.00,18.99,22.65,25.84,14.21,48.29,1023.45,2045.00,2591.50,2571.00,2910.54,599.45,607.71,42.05,0000 0000 0000 0000 000000
2017-12-22 12:07:32,0.01,2.24,0.00,18.99,22.66,25.81,14.27,48.25,1023.44,2045.00,2591.02,2570.98,2910.03,600.30,608.64,42.10,0000 0000 0000 0000 000000
2017-12-22 12:12:34,0.04,2.24,0.00,18.99,22.67,25.84,14.33,48.36,1023.43,2045.00,2590.36,2570.66,2909.99,600.28,608.54,42.15,0000 0000 0000 0000 000000
2017-12-22 12:17:35,0.03,2.24,0.00,19.00,22.67,25.87,14.33,48.45,1023.36,2044.99,2589.99,2570.03,2909.39,600.06,608.26,42.20,0000 0000 0000 0000 000000
2017-12-22 12:22:36,0.02,2.24,0.00,18.99,22.67,25.86,14.30,48.41,1023.42,2044.98,2589.37,2570.00,2909.01,600.11,608.22,42.25,0000 0000 0000 0000 000000
2017-12-22 12:27:38,0.00,2.24,0.00,19.00,22.67,25.80,14.25,48.50,1023.44,2044.99,2588.97,2569.95,2908.98,599.92,608.31,42.30,0000 0000 0000 0000 000000
2017-12-22 12:32:39,0.06,2.25,0.00,19.01,22.67,25.82,14.32,48.48,1023.45,2044.98,2588.26,2569.40,2908.44,600.24,608.51,42.35,0000 0000 0000 0000 000000
2017-12-22 12:37:40,0.01,2.25,0.00,19.02,22.67,25.89,14.25,48.48,1023.45,2044.98,2587.95,2569.03,2908.02,599.96,608.21,42.40,0000 0000 0000 0000 000000
2017-12-22 12:42:41,0.02,2.25,0.00,19.02,22.67,25.85,14.28,48.42,1023.45,2044.97,2587.18,2568.99,2907.96,600.11,608.44,42.45,0000 0000 0000 0000 000000
2017-12-22 12:47:43,0.01,2.25,0.00,19.03,22.69,25.88,14.26,48.44,1023.45,2044.98,2586.98,2568.94,2907.23,600.36,608.57,42.50,0000 0000 0000 0000 000000
2017-12-22 12:52:44,0.04,2.25,0.00,19.02,22.69,25.83,14.31,48.52,1023.45,2044.98,2586.27,2568.31,2907.01,600.29,608.57,42.55,0000 0000 0000 0000 000000
2017-12-22 12:57:45,0.01,2.25,0.00,19.04,22.69,25.89,14.29,48.50,1023.45,2044.98,2585.99,2568.02,2906.93,600.15,608.34,42.60,0000 0000 0000 0000 000000